Weather History for KTAN - November, 2012

Change the Weather History Date:

Monday, November 26, 2012

  Actual Average (KEWB) Record (KEWB)
Temperature  
Mean Temperature 36 °F -  
Max Temperature 48 °F 50 °F - (-1)
Min Temperature 23 °F 35 °F - (-1)
Degree Days  
Heating Degree Days 29    
Moisture  
Dew Point 20 °F    
Average Humidity 57    
Maximum Humidity 85    
Minimum Humidity 33    
Precipitation  
Precipitation 0.00 in - - ()
Sea Level Pressure  
Sea Level Pressure 30.06 in    
Wind  
Wind Speed 6 mph (West)    
Max Wind Speed 14 mph    
Max Gust Speed 23 mph    
Visibility 10 miles    
Events      
Averages and records for this station are not official NWS values.
T = Trace of Precipitation, MM = Missing Value Source: NWS Daily Summary

Daily Weather History Graph

Daily Weather History Graph

Search for Another Location

Airport or City:

Trip Planner

Search our weather history database for the weather conditions in past years. The results will help you decide how hot, cold, wet, or windy it might be!

Date:

Astronomy

Nov. 26, 2012 Rise Set
Actual Time 6:47 AM EST 4:15 PM EST
Civil Twilight 6:16 AM EST 4:46 PM EST
Nautical Twilight 5:42 AM EST 5:20 PM EST
Astronomical Twilight 5:08 AM EST 5:54 PM EST
Moon 3:06 PM EST (11/26) 4:53 AM EST (11/26)
Length of Visible Light 10h 30m
Length of Day
9h 28m
Waxing Gibbous, 97% of the Moon is Illuminated
Nov 26
Waxing Gibbous
Nov 28
Full
Dec 6
Last Quarter
Dec 13
New
Dec 20
First Quarter

Hourly Weather History & Observations

Time (EST) Temp. Windchill Dew Point Humidity Pressure Visibility Wind Dir Wind Speed Gust Speed Precip Events Conditions
12:52 AM 32.0 °F 26.4 °F 21.0 °F 64% 29.90 in 10.0 mi WSW 5.8 mph - N/A   Partly Cloudy
1:52 AM 33.1 °F 26.9 °F 21.0 °F 61% 29.91 in 10.0 mi WSW 6.9 mph - N/A   Clear
2:52 AM 34.0 °F 29.8 °F 21.0 °F 59% 29.92 in 10.0 mi WSW 4.6 mph - N/A   Overcast
3:52 AM 33.1 °F 28.7 °F 21.0 °F 61% 29.93 in 10.0 mi WSW 4.6 mph - N/A   Mostly Cloudy
4:52 AM 32.0 °F 28.7 °F 19.9 °F 61% 29.94 in 10.0 mi WSW 3.5 mph - N/A   Scattered Clouds
5:52 AM 28.0 °F 22.8 °F 21.0 °F 75% 29.95 in 10.0 mi SSW 4.6 mph - N/A   Clear
6:52 AM 30.9 °F 27.5 °F 21.0 °F 67% 29.96 in 10.0 mi WSW 3.5 mph - N/A   Overcast
7:52 AM 34.0 °F 29.8 °F 21.0 °F 59% 29.98 in 10.0 mi West 4.6 mph - N/A   Clear
8:52 AM 39.0 °F 34.0 °F 23.0 °F 53% 30.00 in 10.0 mi West 6.9 mph - N/A   Clear
9:52 AM 43.0 °F 36.8 °F 21.9 °F 43% 30.01 in 10.0 mi West 11.5 mph 21.9 mph N/A   Clear
10:52 AM 45.0 °F 38.5 °F 21.9 °F 40% 30.01 in 10.0 mi West 13.8 mph 18.4 mph N/A   Clear
11:52 AM 46.9 °F - 21.9 °F 37% 30.01 in 10.0 mi West 11.5 mph 20.7 mph N/A   Clear
12:52 PM 48.0 °F - 21.0 °F 34% 30.03 in 10.0 mi West 11.5 mph 23.0 mph N/A   Clear
1:52 PM 46.9 °F - 19.0 °F 33% 30.04 in 10.0 mi WNW 10.4 mph 23.0 mph N/A   Clear
2:52 PM 46.0 °F 40.6 °F 18.0 °F 33% 30.06 in 10.0 mi WNW 11.5 mph 19.6 mph N/A   Clear
3:52 PM 45.0 °F 41.2 °F 17.1 °F 33% 30.09 in 10.0 mi WNW 6.9 mph 17.3 mph N/A   Clear
4:52 PM 39.0 °F 35.7 °F 18.0 °F 43% 30.11 in 10.0 mi West 4.6 mph - N/A   Clear
5:52 PM 28.9 °F 23.9 °F 19.9 °F 69% 30.15 in 10.0 mi SW 4.6 mph - N/A   Clear
6:52 PM 32.0 °F 28.7 °F 19.9 °F 61% 30.18 in 10.0 mi WSW 3.5 mph - N/A   Clear
7:52 PM 28.9 °F - 19.9 °F 69% 30.20 in 10.0 mi Calm Calm - N/A   Clear
8:52 PM 27.0 °F - 19.9 °F 75% 30.22 in 10.0 mi Calm Calm - N/A   Clear
9:52 PM 25.0 °F - 19.9 °F 81% 30.23 in 10.0 mi Calm Calm - N/A   Clear
10:52 PM 24.1 °F - 19.9 °F 84% 30.25 in 10.0 mi Calm Calm - N/A   Clear
11:52 PM 23.0 °F - 19.0 °F 85% 30.25 in 10.0 mi Calm Calm - N/A   Clear